| time (UTC) | temp F | wind direction | speed MPH | gust MPH | rain 1hr in | rain 24hr in | rain mn in | humidity % | barometer mb |
| 20260831210404 | 74 | 163 | 0.0 | 1.0 | 0.00 | 0.03 | 0.00 | 74 | 1017.4 |
| 20260831205904 | 74 | 186 | 0.0 | 8.0 | 0.00 | 0.03 | 0.00 | 73 | 1017.4 |
| 20260831205405 | 74 | 185 | 1.0 | 3.0 | 0.00 | 0.03 | 0.00 | 73 | 1017.5 |
| 20260831204905 | 74 | 181 | 1.0 | 5.0 | 0.00 | 0.03 | 0.00 | 72 | 1017.4 |
| 20260831204403 | 75 | 163 | 2.0 | 8.0 | 0.00 | 0.03 | 0.00 | 73 | 1017.3 |
| 20260831203405 | 75 | 154 | 2.0 | 9.0 | 0.00 | 0.03 | 0.00 | 73 | 1017.2 |
| 20260831202904 | 75 | 146 | 3.0 | 6.0 | 0.00 | 0.03 | 0.00 | 72 | 1017.1 |
| 20260831202404 | 74 | 209 | 2.0 | 9.0 | 0.00 | 0.03 | 0.00 | 73 | 1017.2 |
| 20260831201904 | 74 | 180 | 4.0 | 9.0 | 0.00 | 0.03 | 0.00 | 72 | 1017.3 |
| 20260831201403 | 74 | 185 | 4.0 | 10.0 | 0.00 | 0.03 | 0.00 | 72 | 1017.6 |
| 20260831200903 | 74 | 184 | 2.0 | 10.0 | 0.00 | 0.03 | 0.00 | 73 | 1017.6 |
| 20260831200403 | 74 | 207 | 5.0 | 10.0 | 0.00 | 0.03 | 0.00 | 73 | 1017.7 |
| 20260831195903 | 74 | 180 | 4.0 | 12.0 | 0.00 | 0.03 | 0.00 | 73 | 1017.7 |
| 20260831195404 | 74 | 190 | 3.0 | 12.0 | 0.00 | 0.03 | 0.00 | 71 | 1017.8 |
| 20260831194905 | 74 | 175 | 6.0 | 12.0 | 0.00 | 0.03 | 0.00 | 72 | 1017.8 |
| 20260831193904 | 74 | 190 | 4.0 | 10.0 | 0.00 | 0.03 | 0.00 | 71 | 1017.8 |
| 20260831193404 | 75 | 176 | 6.0 | 12.0 | 0.00 | 0.03 | 0.00 | 69 | 1017.8 |
| 20260831192904 | 75 | 182 | 6.0 | 13.0 | 0.00 | 0.03 | 0.00 | 67 | 1017.8 |
| 20260831191904 | 76 | 175 | 3.0 | 10.0 | 0.00 | 0.03 | 0.00 | 66 | 1017.8 |
| 20260831191404 | 76 | 179 | 6.0 | 12.0 | 0.00 | 0.03 | 0.00 | 65 | 1017.8 |
| 20260831190904 | 77 | 193 | 5.0 | 12.0 | 0.00 | 0.03 | 0.00 | 64 | 1018.0 |
| 20260831190404 | 77 | 191 | 2.0 | 5.0 | 0.00 | 0.03 | 0.00 | 64 | 1017.8 |
| 20260831185904 | 77 | 171 | 1.0 | 3.0 | 0.00 | 0.03 | 0.00 | 64 | 1017.9 |
| 20260831185404 | 77 | 176 | 1.0 | 3.0 | 0.00 | 0.03 | 0.00 | 64 | 1017.9 |
| 20260831184403 | 77 | 172 | 1.0 | 5.0 | 0.00 | 0.03 | 0.00 | 64 | 1017.9 |
| 20260831183904 | 77 | 163 | 1.0 | 6.0 | 0.00 | 0.03 | 0.00 | 64 | 1018.0 |
| 20260831183404 | 77 | 184 | 1.0 | 3.0 | 0.00 | 0.03 | 0.00 | 63 | 1018.0 |
| 20260831182904 | 78 | 183 | 1.0 | 3.0 | 0.00 | 0.03 | 0.00 | 65 | 1018.0 |
| 20260831182404 | 78 | 255 | 2.0 | 3.0 | 0.00 | 0.03 | 0.00 | 66 | 1018.0 |
| 20260831181904 | 77 | 228 | 1.0 | 3.0 | 0.00 | 0.03 | 0.00 | 66 | 1017.9 |
| 20260831181404 | 77 | 169 | 0.0 | 1.0 | 0.00 | 0.03 | 0.00 | 64 | 1018.1 |
| 20260831180904 | 77 | 177 | 0.0 | 3.0 | 0.00 | 0.03 | 0.00 | 63 | 1018.1 |
| 20260831180404 | 77 | 102 | 1.0 | 3.0 | 0.00 | 0.03 | 0.00 | 64 | 1018.2 |
| 20260831175904 | 77 | 161 | 1.0 | 2.0 | 0.00 | 0.03 | 0.00 | 64 | 1018.3 |
| 20260831175404 | 76 | 142 | 0.0 | 1.0 | 0.00 | 0.03 | 0.00 | 64 | 1018.3 |
| 20260831174405 | 77 | 123 | 0.0 | 2.0 | 0.00 | 0.03 | 0.00 | 64 | 1018.4 |
| 20260831173905 | 77 | 104 | 0.0 | 2.0 | 0.00 | 0.03 | 0.00 | 65 | 1018.5 |
| 20260831173405 | 76 | 115 | 0.0 | 3.0 | 0.00 | 0.03 | 0.00 | 64 | 1018.5 |
| 20260831172905 | 77 | 121 | 2.0 | 3.0 | 0.00 | 0.03 | 0.00 | 63 | 1018.3 |
| 20260831172404 | 78 | 134 | 1.0 | 5.0 | 0.00 | 0.03 | 0.00 | 62 | 1018.3 |
| 20260831171904 | 78 | 133 | 1.0 | 5.0 | 0.00 | 0.03 | 0.00 | 66 | 1018.4 |
| 20260831171404 | 77 | 114 | 1.0 | 3.0 | 0.00 | 0.03 | 0.00 | 65 | 1018.5 |
| 20260831170904 | 76 | 135 | 1.0 | 2.0 | 0.00 | 0.03 | 0.00 | 66 | 1018.6 |
| 20260831170404 | 77 | 101 | 1.0 | 3.0 | 0.00 | 0.03 | 0.00 | 65 | 1018.6 |
| 20260831165904 | 77 | 87 | 2.0 | 6.0 | 0.00 | 0.03 | 0.00 | 63 | 1018.4 |
| 20260831165405 | 77 | 131 | 0.0 | 3.0 | 0.00 | 0.03 | 0.00 | 66 | 1018.4 |
| 20260831164404 | 76 | 47 | 1.0 | 3.0 | 0.00 | 0.03 | 0.00 | 67 | 1018.6 |
| 20260831163904 | 77 | 83 | 1.0 | 5.0 | 0.00 | 0.03 | 0.00 | 64 | 1018.6 |
| 20260831163404 | 77 | 90 | 0.0 | 3.0 | 0.00 | 0.03 | 0.00 | 72 | 1018.6 |
| 20260831162904 | 76 | 103 | 1.0 | 3.0 | 0.00 | 0.03 | 0.00 | 66 | 1018.5 |
| 20260831162404 | 78 | 161 | 0.0 | 3.0 | 0.00 | 0.03 | 0.00 | 70 | 1018.5 |
| 20260831161905 | 77 | 136 | 2.0 | 5.0 | 0.00 | 0.03 | 0.00 | 66 | 1018.5 |
| 20260831161405 | 76 | 144 | 0.0 | 1.0 | 0.00 | 0.03 | 0.00 | 72 | 1018.6 |
| 20260831160905 | 76 | 163 | 0.0 | 1.0 | 0.00 | 0.03 | 0.00 | 66 | 1018.7 |
| 20260831160405 | 76 | 143 | 1.0 | 3.0 | 0.00 | 0.03 | 0.00 | 69 | 1018.8 |
| 20260831155904 | 75 | 132 | 0.0 | 3.0 | 0.00 | 0.03 | 0.00 | 68 | 1018.7 |
| 20260831154904 | 75 | 148 | 2.0 | 5.0 | 0.00 | 0.03 | 0.00 | 70 | 1018.7 |
| 20260831154404 | 75 | 183 | 0.0 | 1.0 | 0.00 | 0.03 | 0.00 | 73 | 1018.8 |
| 20260831153905 | 75 | 104 | 1.0 | 3.0 | 0.00 | 0.03 | 0.00 | 69 | 1019.0 |
| 20260831152905 | 75 | 226 | 1.0 | 5.0 | 0.00 | 0.03 | 0.00 | 70 | 1019.0 |
| 20260831152403 | 74 | 51 | 0.0 | 3.0 | 0.00 | 0.03 | 0.00 | 73 | 1018.9 |
| 20260831151905 | 74 | 111 | 1.0 | 2.0 | 0.00 | 0.03 | 0.00 | 70 | 1018.9 |
| 20260831151403 | 74 | 87 | 1.0 | 2.0 | 0.00 | 0.03 | 0.00 | 71 | 1018.9 |
| 20260831150904 | 74 | 180 | 1.0 | 3.0 | 0.00 | 0.03 | 0.00 | 71 | 1018.9 |
| 20260831150404 | 74 | 166 | 2.0 | 5.0 | 0.00 | 0.03 | 0.00 | 73 | 1018.9 |
| 20260831145404 | 73 | 133 | 1.0 | 2.0 | 0.00 | 0.03 | 0.00 | 74 | 1019.1 |
| 20260831144904 | 73 | 105 | 1.0 | 2.0 | 0.00 | 0.03 | 0.00 | 75 | 1019.1 |
| 20260831144403 | 73 | 23 | 0.0 | 2.0 | 0.00 | 0.03 | 0.00 | 75 | 1019.2 |
| 20260831143404 | 72 | 12 | 1.0 | 3.0 | 0.00 | 0.03 | 0.00 | 76 | 1019.2 |
| 20260831142404 | 73 | 50 | 2.0 | 6.0 | 0.00 | 0.03 | 0.00 | 76 | 1019.2 |
| 20260831141905 | 72 | 51 | 0.0 | 0.0 | 0.00 | 0.03 | 0.00 | 77 | 1019.2 |
| 20260831141403 | 71 | 9 | 0.0 | 0.0 | 0.00 | 0.03 | 0.00 | 78 | 1019.1 |
| 20260831140404 | 71 | 26 | 0.0 | 0.0 | 0.00 | 0.03 | 0.00 | 78 | 1019.1 |
| 20260831135904 | 71 | 12 | 0.0 | 0.0 | 0.00 | 0.03 | 0.00 | 79 | 1019.0 |
| 20260831134904 | 70 | 22 | 0.0 | 0.0 | 0.00 | 0.03 | 0.00 | 80 | 1019.0 |
| 20260831134404 | 70 | 19 | 0.0 | 0.0 | 0.00 | 0.03 | 0.00 | 81 | 1019.0 |
| 20260831133904 | 70 | 45 | 0.0 | 0.0 | 0.00 | 0.03 | 0.00 | 80 | 1018.9 |
| 20260831133404 | 70 | 31 | 0.0 | 0.0 | 0.00 | 0.03 | 0.00 | 81 | 1018.9 |
| 20260831132904 | 70 | 30 | 0.0 | 0.0 | 0.00 | 0.03 | 0.00 | 81 | 1018.9 |
| 20260831132404 | 70 | 20 | 0.0 | 0.0 | 0.00 | 0.03 | 0.00 | 80 | 1018.8 |
| 20260831131904 | 70 | 10 | 0.0 | 0.0 | 0.00 | 0.03 | 0.00 | 82 | 1018.8 |
| 20260831131404 | 70 | 6 | 0.0 | 0.0 | 0.00 | 0.03 | 0.00 | 81 | 1018.9 |
| 20260831130404 | 69 | 5 | 0.0 | 0.0 | 0.00 | 0.03 | 0.00 | 82 | 1019.0 |
| 20260831125404 | 69 | 6 | 0.0 | 0.0 | 0.00 | 0.03 | 0.00 | 83 | 1018.9 |
| 20260831124404 | 69 | 355 | 0.0 | 0.0 | 0.00 | 0.03 | 0.00 | 83 | 1019.0 |
| 20260831123904 | 69 | 359 | 0.0 | 0.0 | 0.00 | 0.03 | 0.00 | 84 | 1019.1 |
| 20260831123404 | 69 | 355 | 0.0 | 0.0 | 0.00 | 0.03 | 0.00 | 85 | 1019.0 |
| 20260831122404 | 69 | 33 | 0.0 | 0.0 | 0.00 | 0.03 | 0.00 | 84 | 1018.9 |
| 20260831121906 | 69 | 33 | 0.0 | 0.0 | 0.00 | 0.03 | 0.00 | 85 | 1018.9 |
| 20260831121404 | 69 | 32 | 0.0 | 0.0 | 0.00 | 0.03 | 0.00 | 84 | 1018.9 |
| 20260831120904 | 69 | 339 | 0.0 | 0.0 | 0.00 | 0.03 | 0.00 | 84 | 1018.9 |
| 20260831115904 | 69 | 338 | 0.0 | 0.0 | 0.00 | 0.03 | 0.00 | 84 | 1018.7 |
| 20260831115405 | 68 | 4 | 0.0 | 0.0 | 0.00 | 0.03 | 0.00 | 85 | 1018.8 |
| 20260831114904 | 68 | 355 | 0.0 | 0.0 | 0.00 | 0.03 | 0.00 | 86 | 1018.8 |
| 20260831114405 | 68 | 346 | 0.0 | 0.0 | 0.00 | 0.03 | 0.00 | 86 | 1018.7 |
| 20260831113904 | 68 | 345 | 0.0 | 0.0 | 0.00 | 0.03 | 0.00 | 86 | 1018.6 |
| 20260831113404 | 68 | 341 | 0.0 | 0.0 | 0.00 | 0.03 | 0.00 | 86 | 1018.4 |
| 20260831112904 | 68 | 341 | 0.0 | 0.0 | 0.00 | 0.03 | 0.00 | 86 | 1018.3 |
| 20260831112404 | 68 | 338 | 0.0 | 0.0 | 0.00 | 0.03 | 0.00 | 86 | 1018.3 |
| 20260831111904 | 68 | 325 | 0.0 | 0.0 | 0.00 | 0.03 | 0.00 | 87 | 1018.2 |
| 20260831111405 | 68 | 325 | 0.0 | 0.0 | 0.00 | 0.03 | 0.00 | 87 | 1018.2 |
| 20260831110404 | 68 | 355 | 0.0 | 0.0 | 0.00 | 0.03 | 0.00 | 87 | 1018.3 |
| 20260831105905 | 68 | 6 | 0.0 | 0.0 | 0.00 | 0.03 | 0.00 | 86 | 1018.3 |
| 20260831105405 | 68 | 5 | 0.0 | 0.0 | 0.00 | 0.03 | 0.00 | 87 | 1018.3 |
| 20260831104905 | 68 | 5 | 0.0 | 0.0 | 0.00 | 0.03 | 0.00 | 86 | 1018.3 |
| 20260831104404 | 68 | 5 | 0.0 | 0.0 | 0.00 | 0.03 | 0.00 | 86 | 1018.2 |
| 20260831103904 | 68 | 8 | 0.0 | 0.0 | 0.00 | 0.03 | 0.00 | 86 | 1018.2 |
| 20260831102904 | 68 | 6 | 0.0 | 1.0 | 0.00 | 0.03 | 0.00 | 86 | 1018.1 |
| 20260831102405 | 68 | 355 | 0.0 | 0.0 | 0.00 | 0.03 | 0.00 | 85 | 1018.0 |
| 20260831101905 | 68 | 356 | 0.0 | 1.0 | 0.00 | 0.03 | 0.00 | 85 | 1018.0 |
| 20260831101405 | 68 | 14 | 0.0 | 2.0 | 0.00 | 0.03 | 0.00 | 85 | 1018.0 |
| 20260831100904 | 68 | 17 | 0.0 | 2.0 | 0.00 | 0.03 | 0.00 | 85 | 1017.9 |
| 20260831100404 | 68 | 7 | 0.0 | 0.0 | 0.00 | 0.03 | 0.00 | 85 | 1017.7 |
| 20260831095904 | 68 | 5 | 0.0 | 0.0 | 0.00 | 0.03 | 0.00 | 84 | 1017.8 |
| 20260831095405 | 68 | 5 | 0.0 | 0.0 | 0.00 | 0.03 | 0.00 | 84 | 1017.8 |
| 20260831094905 | 68 | 5 | 0.0 | 0.0 | 0.00 | 0.03 | 0.00 | 84 | 1017.7 |
| 20260831094405 | 68 | 24 | 0.0 | 0.0 | 0.00 | 0.03 | 0.00 | 84 | 1017.6 |
| 20260831093405 | 68 | 13 | 0.0 | 0.0 | 0.00 | 0.03 | 0.00 | 85 | 1017.5 |
| 20260831092906 | 68 | 311 | 0.0 | 0.0 | 0.00 | 0.03 | 0.00 | 85 | 1017.5 |
| 20260831092404 | 68 | 310 | 0.0 | 0.0 | 0.00 | 0.03 | 0.00 | 84 | 1017.4 |
| 20260831091404 | 68 | 308 | 0.0 | 0.0 | 0.00 | 0.03 | 0.00 | 84 | 1017.5 |
| 20260831090905 | 68 | 308 | 0.0 | 0.0 | 0.00 | 0.03 | 0.00 | 84 | 1017.4 |
| 20260831090404 | 68 | 308 | 0.0 | 0.0 | 0.00 | 0.03 | 0.00 | 84 | 1017.4 |
| 20260831085903 | 68 | 307 | 0.0 | 0.0 | 0.00 | 0.03 | 0.00 | 84 | 1017.4 |
| 20260831085403 | 69 | 311 | 0.0 | 0.0 | 0.00 | 0.03 | 0.00 | 84 | 1017.3 |
| 20260831084903 | 69 | 318 | 0.0 | 0.0 | 0.00 | 0.03 | 0.00 | 83 | 1017.2 |
| 20260831084404 | 69 | 300 | 0.0 | 0.0 | 0.00 | 0.03 | 0.00 | 83 | 1017.2 |
| 20260831083904 | 69 | 305 | 0.0 | 0.0 | 0.00 | 0.03 | 0.00 | 83 | 1017.2 |
| 20260831083404 | 69 | 289 | 0.0 | 0.0 | 0.00 | 0.03 | 0.00 | 83 | 1017.3 |
| 20260831082904 | 69 | 299 | 0.0 | 0.0 | 0.00 | 0.03 | 0.00 | 83 | 1017.3 |
| 20260831082404 | 69 | 275 | 0.0 | 0.0 | 0.00 | 0.03 | 0.00 | 83 | 1017.4 |
| 20260831081904 | 69 | 286 | 0.0 | 0.0 | 0.00 | 0.03 | 0.00 | 83 | 1017.4 |
| 20260831081405 | 69 | 322 | 0.0 | 0.0 | 0.00 | 0.03 | 0.00 | 83 | 1017.4 |
| 20260831080904 | 69 | 313 | 0.0 | 0.0 | 0.00 | 0.03 | 0.00 | 82 | 1017.4 |
| 20260831080404 | 69 | 313 | 0.0 | 0.0 | 0.00 | 0.03 | 0.00 | 82 | 1017.4 |
| 20260831075405 | 69 | 313 | 0.0 | 0.0 | 0.00 | 0.03 | 0.00 | 82 | 1017.4 |
| 20260831074904 | 69 | 313 | 0.0 | 0.0 | 0.00 | 0.03 | 0.00 | 82 | 1017.4 |
| 20260831074405 | 69 | 313 | 0.0 | 0.0 | 0.00 | 0.03 | 0.00 | 82 | 1017.4 |
| 20260831073904 | 69 | 312 | 0.0 | 0.0 | 0.00 | 0.03 | 0.00 | 82 | 1017.4 |
| 20260831073404 | 69 | 312 | 0.0 | 0.0 | 0.00 | 0.03 | 0.00 | 82 | 1017.4 |
| 20260831072904 | 69 | 312 | 0.0 | 0.0 | 0.00 | 0.03 | 0.00 | 82 | 1017.4 |
| 20260831072404 | 69 | 312 | 0.0 | 0.0 | 0.00 | 0.03 | 0.00 | 82 | 1017.4 |
| 20260831071404 | 70 | 312 | 0.0 | 0.0 | 0.00 | 0.03 | 0.00 | 81 | 1017.4 |
| 20260831070905 | 70 | 312 | 0.0 | 0.0 | 0.00 | 0.03 | 0.00 | 81 | 1017.4 |
| 20260831065904 | 70 | 282 | 0.0 | 0.0 | 0.00 | 0.03 | 0.00 | 81 | 1017.5 |
| 20260831065403 | 70 | 268 | 0.0 | 0.0 | 0.00 | 0.03 | 0.00 | 82 | 1017.4 |
| 20260831064906 | 70 | 262 | 0.0 | 0.0 | 0.00 | 0.03 | 0.00 | 82 | 1017.4 |
| 20260831064404 | 70 | 327 | 0.0 | 0.0 | 0.00 | 0.03 | 0.00 | 82 | 1017.4 |
| 20260831063904 | 70 | 327 | 0.0 | 0.0 | 0.00 | 0.03 | 0.00 | 82 | 1017.4 |
| 20260831063404 | 70 | 345 | 0.0 | 0.0 | 0.00 | 0.03 | 0.00 | 82 | 1017.4 |
| 20260831062904 | 70 | 346 | 0.0 | 0.0 | 0.00 | 0.03 | 0.00 | 82 | 1017.4 |
| 20260831062405 | 70 | 346 | 0.0 | 0.0 | 0.00 | 0.03 | 0.00 | 82 | 1017.4 |
| 20260831061904 | 70 | 355 | 0.0 | 0.0 | 0.00 | 0.03 | 0.00 | 82 | 1017.4 |
| 20260831061405 | 70 | 0 | 0.0 | 0.0 | 0.00 | 0.03 | 0.00 | 82 | 1017.2 |
| 20260831060906 | 70 | 299 | 0.0 | 0.0 | 0.00 | 0.03 | 0.00 | 82 | 1017.3 |
| 20260831060405 | 70 | 299 | 0.0 | 1.0 | 0.00 | 0.03 | 0.00 | 82 | 1017.4 |
| 20260831055905 | 70 | 295 | 0.0 | 3.0 | 0.00 | 0.03 | 0.00 | 81 | 1017.4 |
| 20260831055404 | 70 | 314 | 0.0 | 1.0 | 0.00 | 0.03 | 0.00 | 81 | 1017.4 |
| 20260831054404 | 70 | 284 | 1.0 | 5.0 | 0.00 | 0.03 | 0.00 | 82 | 1017.3 |
| 20260831053904 | 70 | 296 | 1.0 | 5.0 | 0.00 | 0.03 | 0.00 | 83 | 1017.5 |
| 20260831053405 | 70 | 291 | 1.0 | 5.0 | 0.00 | 0.03 | 0.00 | 83 | 1017.6 |
| 20260831052904 | 70 | 289 | 0.0 | 6.0 | 0.00 | 0.03 | 0.00 | 83 | 1017.6 |
| 20260831052405 | 70 | 298 | 0.0 | 1.0 | 0.00 | 0.03 | 0.00 | 82 | 1017.5 |
| 20260831051406 | 71 | 279 | 0.0 | 1.0 | 0.00 | 0.03 | 0.00 | 82 | 1017.5 |
| 20260831050906 | 71 | 306 | 0.0 | 1.0 | 0.00 | 0.03 | 0.00 | 82 | 1017.5 |
| 20260831050406 | 71 | 307 | 0.0 | 1.0 | 0.00 | 0.03 | 0.00 | 82 | 1017.6 |
| 20260831044405 | 71 | 290 | 0.0 | 1.0 | 0.00 | 0.03 | 0.00 | 83 | 1017.5 |
| 20260831043906 | 71 | 300 | 1.0 | 8.0 | 0.00 | 0.03 | 0.00 | 83 | 1017.4 |
| 20260831043405 | 71 | 309 | 0.0 | 0.0 | 0.00 | 0.03 | 0.00 | 84 | 1017.4 |
| 20260831042904 | 71 | 314 | 0.0 | 0.0 | 0.00 | 0.03 | 0.00 | 85 | 1017.3 |
| 20260831042405 | 71 | 321 | 0.0 | 0.0 | 0.00 | 0.03 | 0.00 | 86 | 1017.3 |
| 20260831040904 | 71 | 310 | 0.0 | 0.0 | 0.00 | 0.03 | 0.00 | 87 | 1017.2 |
| 20260831035905 | 71 | 290 | 0.0 | 0.0 | 0.00 | 0.03 | 0.03 | 88 | 1017.1 |
| 20260831035404 | 72 | 309 | 0.0 | 0.0 | 0.00 | 0.03 | 0.03 | 88 | 1017.1 |
| 20260831034904 | 72 | 309 | 0.0 | 0.0 | 0.00 | 0.03 | 0.03 | 88 | 1017.2 |
| 20260831034405 | 72 | 319 | 0.0 | 0.0 | 0.00 | 0.03 | 0.03 | 88 | 1017.2 |
| 20260831033405 | 72 | 306 | 0.0 | 0.0 | 0.00 | 0.03 | 0.03 | 88 | 1017.4 |
| 20260831032904 | 72 | 291 | 0.0 | 0.0 | 0.00 | 0.03 | 0.03 | 88 | 1017.4 |
| 20260831032404 | 72 | 304 | 0.0 | 0.0 | 0.00 | 0.03 | 0.03 | 88 | 1017.4 |
| 20260831031404 | 72 | 282 | 0.0 | 0.0 | 0.00 | 0.03 | 0.03 | 88 | 1017.1 |
| 20260831030904 | 72 | 298 | 0.0 | 0.0 | 0.00 | 0.03 | 0.03 | 88 | 1017.1 |
| 20260831025405 | 73 | 297 | 0.0 | 3.0 | 0.00 | 0.03 | 0.03 | 89 | 1017.2 |
| 20260831024903 | 73 | 295 | 0.0 | 1.0 | 0.01 | 0.03 | 0.03 | 89 | 1017.4 |
| 20260831024403 | 73 | 299 | 1.0 | 5.0 | 0.01 | 0.03 | 0.03 | 88 | 1017.4 |
| 20260831023904 | 73 | 263 | 0.0 | 0.0 | 0.01 | 0.03 | 0.03 | 88 | 1017.5 |
| 20260831022904 | 73 | 259 | 0.0 | 1.0 | 0.02 | 0.03 | 0.03 | 87 | 1017.4 |
| 20260831022405 | 73 | 259 | 0.0 | 1.0 | 0.02 | 0.03 | 0.03 | 87 | 1017.6 |
| 20260831021903 | 73 | 277 | 0.0 | 1.0 | 0.02 | 0.03 | 0.03 | 87 | 1017.6 |
| 20260831020904 | 73 | 257 | 1.0 | 6.0 | 0.03 | 0.03 | 0.03 | 87 | 1017.8 |
| 20260831020403 | 73 | 262 | 2.0 | 6.0 | 0.03 | 0.03 | 0.03 | 87 | 1017.8 |
| 20260831015905 | 73 | 245 | 0.0 | 5.0 | 0.03 | 0.03 | 0.03 | 86 | 1017.9 |
| 20260831015404 | 73 | 267 | 0.0 | 7.0 | 0.03 | 0.03 | 0.03 | 85 | 1017.8 |
| 20260831014404 | 74 | 275 | 5.0 | 9.0 | 0.02 | 0.02 | 0.02 | 85 | 1017.8 |
| 20260831013904 | 74 | 264 | 1.0 | 3.0 | 0.02 | 0.02 | 0.02 | 85 | 1017.7 |
| 20260831013405 | 74 | 269 | 0.0 | 0.0 | 0.01 | 0.01 | 0.01 | 85 | 1017.5 |
| 20260831012404 | 74 | 267 | 0.0 | 0.0 | 0.01 | 0.01 | 0.01 | 85 | 1017.5 |
| 20260831011404 | 74 | 260 | 0.0 | 0.0 | 0.01 | 0.01 | 0.01 | 83 | 1017.3 |
| 20260831010904 | 74 | 259 | 0.0 | 0.0 | 0.00 | 0.00 | 0.00 | 83 | 1017.3 |
| 20260831005904 | 75 | 269 | 0.0 | 1.0 | 0.00 | 0.00 | 0.00 | 83 | 1017.1 |
| 20260831005404 | 75 | 271 | 0.0 | 1.0 | 0.00 | 0.00 | 0.00 | 83 | 1017.1 |
| 20260831004905 | 75 | 252 | 0.0 | 1.0 | 0.00 | 0.00 | 0.00 | 83 | 1017.1 |
| 20260831004404 | 75 | 246 | 2.0 | 9.0 | 0.00 | 0.00 | 0.00 | 82 | 1017.1 |
| 20260831003904 | 75 | 249 | 3.0 | 7.0 | 0.00 | 0.00 | 0.00 | 82 | 1017.0 |
| 20260831003405 | 75 | 240 | 0.0 | 1.0 | 0.00 | 0.00 | 0.00 | 83 | 1017.0 |
| 20260831002904 | 76 | 226 | 0.0 | 2.0 | 0.00 | 0.00 | 0.00 | 82 | 1017.0 |
| 20260831002405 | 76 | 249 | 1.0 | 3.0 | 0.00 | 0.00 | 0.00 | 80 | 1016.9 |
| 20260831001904 | 77 | 267 | 0.0 | 1.0 | 0.00 | 0.00 | 0.00 | 79 | 1016.8 |
| 20260831000904 | 77 | 254 | 0.0 | 0.0 | 0.00 | 0.00 | 0.00 | 78 | 1016.6 |
| 20260831000404 | 77 | 253 | 0.0 | 1.0 | 0.00 | 0.00 | 0.00 | 78 | 1016.6 |
| 20260830235904 | 77 | 252 | 0.0 | 1.0 | 0.00 | 0.00 | 0.00 | 77 | 1016.5 |
| 20260830235404 | 77 | 234 | 2.0 | 5.0 | 0.00 | 0.00 | 0.00 | 77 | 1016.6 |
| 20260830234904 | 77 | 257 | 0.0 | 5.0 | 0.00 | 0.00 | 0.00 | 77 | 1016.5 |
| 20260830234405 | 77 | 257 | 2.0 | 6.0 | 0.00 | 0.00 | 0.00 | 77 | 1016.4 |
| 20260830233405 | 77 | 240 | 3.0 | 7.0 | 0.00 | 0.00 | 0.00 | 77 | 1016.3 |
| 20260830232905 | 77 | 232 | 2.0 | 5.0 | 0.00 | 0.00 | 0.00 | 77 | 1016.3 |
| 20260830232404 | 77 | 263 | 3.0 | 8.0 | 0.00 | 0.00 | 0.00 | 77 | 1016.2 |
| 20260830231904 | 77 | 235 | 0.0 | 3.0 | 0.00 | 0.00 | 0.00 | 77 | 1016.2 |
| 20260830231405 | 77 | 258 | 2.0 | 6.0 | 0.00 | 0.00 | 0.00 | 77 | 1016.3 |
| 20260830230904 | 77 | 241 | 0.0 | 1.0 | 0.00 | 0.00 | 0.00 | 77 | 1016.3 |
| 20260830230405 | 77 | 241 | 2.0 | 8.0 | 0.00 | 0.00 | 0.00 | 76 | 1016.3 |
| 20260830225904 | 77 | 252 | 2.0 | 8.0 | 0.00 | 0.00 | 0.00 | 76 | 1016.4 |
| 20260830225404 | 77 | 243 | 0.0 | 10.0 | 0.00 | 0.00 | 0.00 | 76 | 1016.5 |
| 20260830224904 | 78 | 233 | 3.0 | 10.0 | 0.00 | 0.00 | 0.00 | 76 | 1016.3 |
| 20260830224405 | 78 | 219 | 5.0 | 8.0 | 0.00 | 0.00 | 0.00 | 75 | 1016.2 |
| 20260830223405 | 78 | 224 | 5.0 | 12.0 | 0.00 | 0.00 | 0.00 | 75 | 1016.3 |
| 20260830222904 | 78 | 244 | 2.0 | 7.0 | 0.00 | 0.00 | 0.00 | 75 | 1016.3 |
| 20260830222405 | 78 | 236 | 5.0 | 10.0 | 0.00 | 0.00 | 0.00 | 75 | 1016.2 |
| 20260830221905 | 78 | 218 | 7.0 | 12.0 | 0.00 | 0.00 | 0.00 | 75 | 1016.5 |
| 20260830220905 | 78 | 241 | 3.0 | 6.0 | 0.00 | 0.00 | 0.00 | 75 | 1016.4 |
| 20260830220406 | 78 | 221 | 2.0 | 9.0 | 0.00 | 0.00 | 0.00 | 74 | 1016.4 |
| 20260830215905 | 78 | 228 | 6.0 | 9.0 | 0.00 | 0.00 | 0.00 | 74 | 1016.6 |
| 20260830215405 | 78 | 225 | 3.0 | 8.0 | 0.00 | 0.00 | 0.00 | 74 | 1016.6 |
| 20260830214405 | 78 | 243 | 6.0 | 12.0 | 0.00 | 0.00 | 0.00 | 73 | 1016.3 |
| 20260830213905 | 78 | 227 | 8.0 | 13.0 | 0.00 | 0.00 | 0.00 | 73 | 1016.3 |
| 20260830213405 | 79 | 236 | 3.0 | 15.0 | 0.00 | 0.00 | 0.00 | 73 | 1016.2 |
| 20260830212904 | 79 | 242 | 6.0 | 15.0 | 0.00 | 0.00 | 0.00 | 72 | 1016.1 |
| 20260830212405 | 79 | 239 | 3.0 | 12.0 | 0.00 | 0.00 | 0.00 | 72 | 1016.2 |
| 20260830211904 | 80 | 246 | 1.0 | 9.0 | 0.00 | 0.00 | 0.00 | 71 | 1016.2 |